[[{"header":{"parameterUnit":"m.s-1","parameterCategory":1,"la1":30.2991,"la2":30.254,"lo1":-89.0895,"lo2":-89.0444,"dy":0.0017,"dx":0.0017,"nx":28,"ny":28,"refTime":"2025-01-19T03:00:00:Z","depth":0,"parameterNumber":2,"parameterNumberName":"U-component_of_WINDS"},"data":[0,0,0,0,0,0,0,0,0,0,0,0,0,0,0,0,0,0,0,0,0,0,0,0,0,0,0,0,0,0,0,0,0,0,0,0,0,0,0,0,0,0,0,0,0,0,0,0,0,0,0,0,0,0,0,0,0,0,3.0246,3.0246,0,3.0254,3.0254,3.0254,3.0168,3.0166,3.0163,3.0161,3.0171,3.0174,3.0176,0,0,0,0,0,0,0,0,0,0,0,0,0,3.0157,3.0159,3.0246,3.0246,3.0246,3.0254,3.0254,3.0254,3.0169,3.0166,3.0163,3.016,3.017,3.0173,3.0176,0,0,0,0,0,0,0,0,0,0,0,0,0,3.0184,3.016,3.0246,3.0204,3.02,3.0254,3.0254,3.0254,3.0169,3.0166,3.0162,3.0159,3.0169,3.0173,3.0177,3.0271,0,0,3.0188,3.019,0,0,0,0,0,0,0,0,3.0182,3.0187,3.021,3.0207,3.0203,3.0206,3.0227,3.026,3.017,3.0181,3.0161,3.0157,3.0186,3.0188,3.0198,3.0272,3.0272,3.0189,3.0191,3.0192,3.0193,0,0,0,0,0,0,0,3.018,3.0186,3.0249,3.0211,3.0206,3.0185,3.0185,3.0233,3.0204,3.018,3.0174,3.0176,3.0183,3.0194,3.0197,3.0272,3.0188,3.0192,3.0194,3.0195,3.0424,3.0428,0,0,0,0,0,0,3.0184,3.0185,3.0249,3.0249,3.0184,3.019,3.019,3.0209,3.0203,3.0198,3.0179,3.0172,3.019,3.0193,3.0197,3.0307,3.0192,3.0196,3.0198,3.0421,3.0425,3.0429,0,0,0,0,0,0,3.0182,3.019,3.0248,3.0216,3.0221,3.0195,3.0218,3.0211,3.0222,3.0202,3.0196,3.0195,3.0187,3.0192,3.0253,3.0306,3.0198,3.0201,3.0416,3.0422,3.0427,3.0527,0,0,0,0,0,0,3.018,3.019,3.0226,3.0217,3.0223,3.0304,3.0221,3.0214,3.0228,3.0219,3.0216,3.0212,3.0184,3.0248,3.0257,3.0309,3.0204,3.0411,3.0419,3.0426,3.0519,3.0536,3.055,0,0,0,0,0,3.0177,3.0254,3.0228,3.0236,3.0267,3.0307,3.0311,3.0278,3.0233,3.0268,3.0255,3.0212,3.0299,3.0255,3.0264,3.0318,3.0408,3.0417,3.0425,3.0512,3.0532,3.055,0,0,0,0,0,0,3.0269,3.0252,3.0223,3.0298,3.0305,3.0293,3.0336,3.03,3.032,3.0311,3.0269,3.0269,3.0337,3.0334,3.0286,3.041,3.0346,3.0357,3.0409,3.0428,3.0443,3.0442,3.0207,0,0,0,0,0,3.0298,3.0332,3.0315,3.0384,3.0389,3.0362,3.0379,3.0353,3.0358,3.036,3.0352,3.0359,3.0388,3.0408,3.0434,3.0519,3.0517,3.0561,3.0576,3.0589,3.0598,3.0643,3.0662,3.0458,3.0458,3.0458,0,0,3.0359,3.0353,3.0377,3.0402,3.0404,3.0441,3.0365,3.0407,3.0434,3.0367,3.0423,3.0418,3.0424,3.0497,3.0529,3.0497,3.0655,3.06,3.061,3.0613,3.0654,3.0673,3.069,3.0464,3.0463,3.0462,0,0,3.0487,3.0487,3.0543,3.0547,3.0551,3.0533,3.0547,3.054,3.0534,3.0591,3.0541,3.0573,3.0624,3.0629,3.0639,3.0771,3.0732,3.0781,3.0861,3.0905,3.0921,3.0935,3.0981,3.0998,3.0791,3.0791,3.0791,0,3.0561,3.0613,3.0577,3.0622,3.0635,3.0576,3.0633,3.0639,3.0652,3.0662,3.0625,3.0688,3.0687,3.0761,3.0794,3.0804,3.0818,3.078,3.0921,3.0935,3.0948,3.0991,3.1009,3.0797,3.0796,3.0796,3.0795,0,3.0704,3.0742,3.0788,3.0801,3.0819,3.087,3.0841,3.0864,3.0837,3.0823,3.0882,3.088,3.0904,3.092,3.0894,3.099,3.097,3.0929,3.0863,3.0974,3.1014,3.103,3.0805,3.0803,3.0802,3.08,0,0,3.0888,3.0882,3.0899,3.0904,3.0905,3.0934,3.0983,3.1006,3.1026,3.1037,3.1077,3.1122,3.1084,3.1095,3.1069,3.1108,3.1212,3.1061,3.1061,3.1089,3.1318,3.1348,3.1368,3.1187,3.119,3.1192,3.1317,0,3.1012,3.1094,3.1064,3.1149,3.1183,3.1129,3.1171,3.1177,3.1166,3.1194,3.1182,3.1214,3.1161,3.1167,3.1203,3.1192,3.1257,3.1183,3.1223,3.1225,3.1222,3.1389,3.1421,3.1538,3.1332,3.1335,3.1337,0,3.1167,3.1184,3.1272,3.1268,3.1281,3.132,3.1339,3.1366,3.1372,3.1361,3.1374,3.1341,3.1389,3.1325,3.1391,3.1341,3.1356,3.1353,3.1357,3.1358,3.1286,3.1394,3.1575,3.1593,3.1362,3.136,3.1358,0,3.1291,3.1336,3.1395,3.1402,3.1398,3.1427,3.1427,3.1429,3.1445,3.1462,3.1472,3.1495,3.1507,3.1526,3.15,3.1456,3.1569,3.1503,3.1561,3.1562,3.1586,3.1585,3.1772,3.1599,3.1599,3.1598,3.1598,0,3.1431,3.1487,3.145,3.1486,3.1548,3.1513,3.1574,3.1568,3.1571,3.1605,3.1561,3.1594,3.1558,3.1587,3.1568,3.1625,3.1631,3.1624,3.1617,3.1627,3.1627,3.1635,3.1625,3.1603,3.1602,3.1601,3.16,0,3.1578,3.1557,3.1617,3.1609,3.1608,3.1654,3.1647,3.168,3.1667,3.1711,3.1719,3.1698,3.1731,3.1707,3.174,3.1726,3.1801,3.1784,3.1799,3.1794,3.1853,3.1847,3.205,3.2074,3.1887,3.1889,3.1891,0,3.1668,3.171,3.1707,3.1727,3.1729,3.1762,3.1778,3.1746,3.1765,3.1775,3.1807,3.1837,3.1858,3.1913,3.1901,3.1926,3.1908,3.1978,3.1912,3.192,3.1908,3.1905,3.1909,3.199,3.1993,3.1994,3.1996,0,3.183,3.1817,3.1842,3.1865,3.1885,3.1901,3.1913,3.1932,3.19,3.1924,3.1957,3.1974,3.2007,3.2037,3.2057,3.2057,3.2022,3.2017,3.2032,3.2041,3.2047,3.2043,3.1834,3.2012,3.2011,3.2009,3.2008,3.2008,3.195,3.1984,3.1988,3.2018,3.2024,3.2037,3.2067,3.2058,3.2085,3.211,3.209,3.213,3.2135,3.2159,3.2164,3.2195,3.2166,3.2188,3.2193,3.2198,3.2206,3.2044,3.2199,3.2198,3.2198,3.2197,3.2197,0,3.2107,3.2108,3.2136,3.2154,3.2178,3.2143,3.2155,3.2178,3.2213,3.2221,3.2243,3.2282,3.231,3.2301,3.2327,3.2353,3.2337,3.2361,3.2358,3.2358,3.223,3.2215,3.2373,3.2373,3.2373,3.2373,3.2373,3.2373,3.2192,3.2249,3.2237,3.2297,3.2296,3.2335,3.2345,3.2356,3.2363,3.2407,3.2431,3.2425,3.2427,3.2452,3.2477,3.2474,3.2485,3.2514,3.2505,3.2385,3.2367,3.2351,3.2335,3.2517,3.2517,3.263,3.2631,3.2631]},{"header":{"parameterUnit":"m.s-1","parameterCategory":1,"la1":30.2991,"la2":30.254,"lo1":-89.0895,"lo2":-89.0444,"dy":0.0017,"dx":0.0017,"nx":28,"ny":28,"refTime":"2025-01-19T03:00:00:Z","depth":0,"parameterNumber":3,"parameterNumberName":"V-component_of_WINDS"},"data":[0,0,0,0,0,0,0,0,0,0,0,0,0,0,0,0,0,0,0,0,0,0,0,0,0,0,0,0,0,0,0,0,0,0,0,0,0,0,0,0,0,0,0,0,0,0,0,0,0,0,0,0,0,0,0,0,0,0,4.1723,4.1724,0,4.1789,4.179,4.1791,4.1721,4.1719,4.1716,4.1713,4.1778,4.1782,4.1786,0,0,0,0,0,0,0,0,0,0,0,0,0,4.1533,4.1537,4.1723,4.1724,4.1725,4.1789,4.179,4.1791,4.1722,4.1718,4.1715,4.1712,4.1777,4.1781,4.1787,0,0,0,0,0,0,0,0,0,0,0,0,0,4.1609,4.1538,4.1723,4.1698,4.1696,4.1789,4.179,4.1791,4.1722,4.1718,4.1714,4.1711,4.1775,4.1781,4.1787,4.1906,0,0,4.1807,4.1809,0,0,0,0,0,0,0,0,4.1605,4.1616,4.1701,4.17,4.1698,4.1743,4.1747,4.183,4.1723,4.1712,4.1713,4.1709,4.1769,4.1776,4.1797,4.1909,4.1912,4.1807,4.1811,4.1814,4.1815,0,0,0,0,0,0,0,4.16,4.1613,4.1749,4.1702,4.1701,4.1682,4.1689,4.1762,4.1762,4.1713,4.1708,4.1717,4.1768,4.1791,4.1798,4.1913,4.1807,4.1812,4.1816,4.1819,4.2127,4.2131,0,0,0,0,0,0,4.1598,4.1609,4.1747,4.1751,4.1641,4.1689,4.1696,4.1733,4.1761,4.1762,4.1721,4.1714,4.1782,4.1791,4.18,4.1942,4.1814,4.1819,4.1823,4.2122,4.2128,4.2132,0,0,0,0,0,0,4.1594,4.1611,4.1744,4.1679,4.1694,4.1697,4.1738,4.1736,4.1759,4.1767,4.1766,4.1745,4.1779,4.1791,4.1881,4.1943,4.1822,4.1828,4.2117,4.2124,4.213,4.2227,0,0,0,0,0,0,4.1589,4.161,4.1656,4.168,4.1698,4.1825,4.1742,4.174,4.1771,4.1762,4.1789,4.179,4.1777,4.1872,4.1887,4.195,4.1833,4.2111,4.212,4.2128,4.2218,4.2236,4.2251,0,0,0,0,0,4.1582,4.168,4.1659,4.1676,4.1756,4.1829,4.1839,4.1823,4.1776,4.1822,4.1827,4.1789,4.1934,4.1881,4.1898,4.1964,4.2107,4.2118,4.2127,4.2211,4.2232,4.2251,0,0,0,0,0,0,4.1662,4.1683,4.1659,4.1768,4.1798,4.1817,4.1875,4.1847,4.1889,4.188,4.1857,4.1864,4.1959,4.197,4.1911,4.208,4.2013,4.2026,4.207,4.2091,4.2107,4.2103,4.1838,0,0,0,0,0,4.1692,4.1751,4.1765,4.1859,4.1876,4.1873,4.1904,4.1889,4.1918,4.193,4.1942,4.1971,4.2022,4.2057,4.2105,4.2219,4.2224,4.2272,4.2288,4.2302,4.2314,4.2376,4.2397,4.2165,4.2165,4.2164,0,0,4.1755,4.1774,4.1812,4.1876,4.1897,4.1958,4.1884,4.1951,4.1995,4.194,4.2026,4.2035,4.2066,4.2168,4.2214,4.218,4.2379,4.2314,4.2325,4.233,4.2388,4.241,4.243,4.2171,4.217,4.2169,0,0,4.1901,4.1921,4.2002,4.2025,4.2058,4.2056,4.2075,4.21,4.2104,4.219,4.215,4.2202,4.2291,4.2315,4.2339,4.2493,4.246,4.2509,4.2596,4.2656,4.2675,4.2691,4.2747,4.2767,4.2521,4.2522,4.2522,0,4.1975,4.2066,4.2047,4.2117,4.2147,4.21,4.2182,4.2204,4.2251,4.2272,4.2234,4.2346,4.2363,4.247,4.2508,4.2529,4.255,4.2507,4.2674,4.269,4.2704,4.2758,4.2779,4.2527,4.2527,4.2526,4.2526,0,4.2155,4.2218,4.228,4.2328,4.2364,4.2439,4.2431,4.2469,4.2451,4.2453,4.2541,4.2559,4.2611,4.2635,4.2617,4.274,4.2718,4.2677,4.2609,4.2733,4.2782,4.2803,4.2536,4.2534,4.2532,4.253,0,0,4.2354,4.2391,4.2414,4.2435,4.2468,4.2516,4.2589,4.2641,4.2674,4.2707,4.2768,4.2845,4.2807,4.2834,4.2818,4.2871,4.2993,4.2823,4.2824,4.2855,4.3131,4.3163,4.3187,4.2971,4.2975,4.2978,4.3129,0,4.2502,4.263,4.2615,4.2738,4.2796,4.2752,4.2816,4.2842,4.2845,4.2894,4.2896,4.2952,4.2897,4.2914,4.2963,4.2968,4.3049,4.2957,4.3027,4.303,4.3023,4.3212,4.3246,4.3388,4.3148,4.3151,4.3153,0,4.2691,4.2734,4.2862,4.2887,4.2911,4.2968,4.3014,4.3062,4.309,4.3089,4.3119,4.3094,4.3166,4.3096,4.3195,4.3133,4.316,4.3166,4.3171,4.3179,4.31,4.3226,4.3432,4.3454,4.3183,4.3181,4.3179,0,4.2825,4.2913,4.3002,4.3021,4.3052,4.3094,4.3108,4.3133,4.3165,4.3204,4.3225,4.3271,4.3297,4.3334,4.3322,4.3271,4.3424,4.3352,4.3424,4.3425,4.346,4.3458,4.3675,4.3475,4.3475,4.3474,4.3474,0,4.2993,4.3073,4.3063,4.3118,4.3206,4.3188,4.3276,4.3284,4.3307,4.3362,4.3325,4.3377,4.3358,4.3408,4.3399,4.3483,4.3494,4.3495,4.3491,4.3499,4.3499,4.3518,4.3508,4.348,4.3479,4.3478,4.3477,0,4.3158,4.3154,4.3248,4.3269,4.3276,4.3341,4.3359,4.3409,4.3409,4.3479,4.3494,4.3494,4.3551,4.3543,4.3606,4.3599,4.3705,4.3689,4.3696,4.3693,4.3766,4.376,4.4004,4.4036,4.3814,4.3816,4.3818,0,4.3266,4.3327,4.3355,4.339,4.3408,4.3464,4.3497,4.348,4.3516,4.3553,4.36,4.3654,4.3697,4.3791,4.3795,4.3844,4.3829,4.3911,4.3836,4.3842,4.3832,4.3829,4.3836,4.3927,4.3929,4.3931,4.3933,0,4.3458,4.3453,4.3502,4.3551,4.3592,4.3629,4.3663,4.3693,4.3679,4.372,4.378,4.3813,4.3878,4.3933,4.3978,4.3991,4.3961,4.3957,4.3976,4.3985,4.3988,4.3989,4.3738,4.3951,4.395,4.3948,4.3947,4.3947,4.3598,4.3651,4.368,4.3736,4.376,4.3792,4.3841,4.3848,4.3897,4.395,4.3936,4.4004,4.403,4.4088,4.4106,4.4158,4.4127,4.4156,4.4163,4.4171,4.418,4.3978,4.4166,4.4165,4.4165,4.4164,4.4164,0,4.379,4.3806,4.3858,4.3907,4.3951,4.3918,4.3954,4.3993,4.4053,4.4081,4.4124,4.4192,4.4245,4.4254,4.4304,4.4343,4.433,4.4357,4.4355,4.4358,4.4204,4.4183,4.4367,4.4367,4.4367,4.4367,4.4367,4.4367,4.3895,4.3983,4.3981,4.408,4.4095,4.4162,4.4185,4.4215,4.4237,4.4315,4.436,4.4365,4.4386,4.4437,4.4483,4.4484,4.4505,4.4538,4.4534,4.4389,4.4369,4.435,4.433,4.4542,4.4542,4.4684,4.4685,4.4686]}]]